User: anonymous
Location: Montr�al
(45.5000°N, 73.5830°W)
Time: 14:50:42
(UTC-04:00)
Language:

Cosmos 2369 - Orbit

View from above orbital plane
View from above orbital plane
View from above satellite
View from above satellite

Ground track
Ground track

The orbit data is extracted from the following two-line orbital elements,

1 26069U 00006A   14245.47659907 -.00000286  00000-0 -12690-3 0  3298
2 26069 070.9975 332.9887 0013415 323.1465 114.6768 14.13240692752199
Epoch (UTC): 02 September 2014 11:26:18
Eccentricity: 0.0013415
inclination: 70.9975°
perigee height: 838 km
apogee height: 858 km
right ascension of ascending node: 332.9887°
argument of perigee: 323.1465°
revolutions per day: 14.13240692
mean anomaly at epoch: 114.6768°
orbit number at epoch: 75219

The dashed part of the orbit path shows where the satellite is in the earth's shadow,  

DLR